TimeEST,TemperatureF,Dew PointF,Humidity,Sea Level PressureIn,VisibilityMPH,Wind Direction,Wind SpeedMPH,Gust SpeedMPH,PrecipitationIn,Events,Conditions,WindDirDegrees,DateUTC
12:58 AM,64.0,62.1,93,30.17,8.0,SW,11.5,-,N/A,,Clear,220,2013-01-15 05:58:00
1:58 AM,63.0,61.0,93,30.17,8.0,SW,6.9,-,N/A,,Clear,230,2013-01-15 06:58:00
2:58 AM,61.0,60.1,97,30.16,7.0,SW,5.8,-,N/A,,Clear,220,2013-01-15 07:58:00
3:58 AM,62.1,61.0,96,30.15,8.0,SW,8.1,-,N/A,,Clear,230,2013-01-15 08:58:00
4:58 AM,60.1,59.0,96,30.14,4.0,Calm,Calm,-,N/A,,Clear,0,2013-01-15 09:58:00
5:15 AM,59.0,59.0,100,30.13,1.8,SW,3.5,-,N/A,,Clear,220,2013-01-15 10:15:00
5:28 AM,60.8,59.0,94,30.13,2.0,SW,3.5,-,N/A,,Clear,230,2013-01-15 10:28:00
5:40 AM,60.8,60.8,100,30.13,4.0,WSW,4.6,-,N/A,,Clear,240,2013-01-15 10:40:00
5:58 AM,60.1,60.1,100,30.13,1.8,Calm,Calm,-,N/A,,Clear,0,2013-01-15 10:58:00
6:03 AM,59.0,59.0,100,30.13,0.8,Calm,Calm,-,N/A,,Mist,0,2013-01-15 11:03:00
6:15 AM,60.8,60.8,100,30.13,1.0,Calm,Calm,-,N/A,,Mist,0,2013-01-15 11:15:00
6:18 AM,60.8,59.0,94,30.13,0.8,NW,3.5,-,N/A,,Mist,320,2013-01-15 11:18:00
6:36 AM,60.8,59.0,94,30.14,1.0,NE,3.5,-,N/A,,Mostly Cloudy,40,2013-01-15 11:36:00
6:39 AM,60.8,60.8,100,30.14,2.0,Variable,4.6,-,N/A,,Overcast,0,2013-01-15 11:39:00
6:58 AM,57.9,57.0,97,30.16,3.0,NE,9.2,-,N/A,,Overcast,40,2013-01-15 11:58:00
7:44 AM,53.6,53.6,100,30.18,4.0,NE,10.4,-,N/A,,Overcast,50,2013-01-15 12:44:00
7:58 AM,53.1,52.0,96,30.18,5.0,NE,12.7,-,N/A,,Overcast,50,2013-01-15 12:58:00
8:58 AM,54.0,52.0,93,30.20,4.0,NE,8.1,-,0.00,,Overcast,50,2013-01-15 13:58:00
9:11 AM,53.6,51.8,94,30.20,5.0,ENE,5.8,-,N/A,,Overcast,70,2013-01-15 14:11:00
9:25 AM,53.6,53.6,100,30.20,6.0,NE,6.9,-,N/A,,Overcast,40,2013-01-15 14:25:00
9:58 AM,55.9,53.1,90,30.21,8.0,ENE,5.8,-,N/A,,Overcast,60,2013-01-15 14:58:00
10:58 AM,57.0,54.0,89,30.19,8.0,NE,5.8,-,N/A,,Overcast,40,2013-01-15 15:58:00
11:58 AM,59.0,55.0,87,30.17,8.0,NNE,4.6,-,N/A,,Overcast,20,2013-01-15 16:58:00
12:58 PM,63.0,57.0,81,30.14,9.0,ENE,3.5,-,N/A,,Overcast,60,2013-01-15 17:58:00
1:31 PM,66.2,59.0,78,30.13,10.0,Variable,3.5,-,N/A,,Scattered Clouds,0,2013-01-15 18:31:00
1:58 PM,66.0,59.0,78,30.14,10.0,NNW,3.5,-,N/A,,Mostly Cloudy,340,2013-01-15 18:58:00
2:14 PM,64.4,59.0,83,30.14,10.0,NNE,4.6,-,N/A,,Overcast,20,2013-01-15 19:14:00
2:58 PM,63.0,57.0,81,30.15,10.0,NNE,8.1,-,N/A,,Overcast,30,2013-01-15 19:58:00
3:36 PM,57.2,53.6,88,30.15,6.0,NE,8.1,-,N/A,,Overcast,50,2013-01-15 20:36:00
3:58 PM,55.9,54.0,93,30.16,4.0,NE,6.9,-,N/A,,Overcast,50,2013-01-15 20:58:00
4:58 PM,55.0,53.1,93,30.17,4.0,NE,6.9,-,N/A,,Overcast,40,2013-01-15 21:58:00
5:11 PM,55.4,53.6,94,30.17,3.0,NE,8.1,-,N/A,,Overcast,50,2013-01-15 22:11:00
5:43 PM,53.6,53.6,100,30.17,1.8,NE,9.2,-,N/A,,Overcast,50,2013-01-15 22:43:00
5:58 PM,54.0,53.1,97,30.17,1.2,NE,9.2,-,N/A,,Overcast,50,2013-01-15 22:58:00
6:22 PM,53.6,53.6,100,30.17,1.0,NE,8.1,-,N/A,,Overcast,50,2013-01-15 23:22:00
6:58 PM,53.1,53.1,100,30.17,1.2,ENE,6.9,-,N/A,,Overcast,60,2013-01-15 23:58:00
7:18 PM,53.6,51.8,94,30.17,2.5,NE,6.9,-,N/A,,Overcast,40,2013-01-16 00:18:00
7:30 PM,51.8,51.8,100,30.17,3.0,NE,4.6,-,N/A,,Overcast,40,2013-01-16 00:30:00
7:58 PM,52.0,52.0,100,30.17,5.0,Variable,3.5,-,0.00,Rain,Light Rain,0,2013-01-16 00:58:00
8:58 PM,53.1,52.0,96,30.14,6.0,East,8.1,-,0.00,,Overcast,80,2013-01-16 01:58:00
9:20 PM,53.6,53.6,100,30.13,7.0,ENE,8.1,-,N/A,,Overcast,70,2013-01-16 02:20:00
9:41 PM,53.6,53.6,100,30.13,7.0,NE,3.5,-,N/A,,Overcast,50,2013-01-16 02:41:00
9:49 PM,53.6,53.6,100,30.13,6.0,NE,3.5,-,0.01,Rain,Light Rain,40,2013-01-16 02:49:00
9:58 PM,54.0,54.0,100,30.13,3.0,Variable,3.5,-,0.02,Rain,Heavy Rain,0,2013-01-16 02:58:00
10:05 PM,53.6,53.6,100,30.12,2.5,NNE,3.5,-,0.01,Rain,Rain,30,2013-01-16 03:05:00
10:12 PM,53.6,53.6,100,30.12,4.0,Calm,Calm,-,0.01,Rain,Light Rain,0,2013-01-16 03:12:00
10:23 PM,55.4,53.6,94,30.12,3.0,Calm,Calm,-,0.02,Rain,Light Rain,0,2013-01-16 03:23:00
10:58 PM,55.0,54.0,96,30.10,7.0,East,6.9,-,0.03,,Overcast,90,2013-01-16 03:58:00
11:10 PM,55.4,55.4,100,30.09,7.0,East,5.8,-,0.00,Rain,Light Rain,80,2013-01-16 04:10:00
11:48 PM,55.4,55.4,100,30.08,8.0,Calm,Calm,-,0.00,,Overcast,0,2013-01-16 04:48:00
11:58 PM,55.9,55.9,100,30.08,8.0,Calm,Calm,-,0.00,,Mostly Cloudy,0,2013-01-16 04:58:00